Location: ???? ??????
(30.6000°N, 60.4167°E)
Time: 23:49:27
(UTC+00:00)

Daily predictions for brighter satellites

Satellite Brightness Start Highest point End
(mag) Time Altitude Azimuth Time Altitude Azimuth Time Altitude Azimuth
Okean-O 2.6 14:59:20 10° SSE 15:03:45 81° ENE 15:08:11 10° N
GEOS 3 Rocket 4.0 15:00:04 10° SSE 15:05:24 71° WSW 15:10:46 10° NW
Meteor 2-8 Rocket 4.4 14:59:44 10° S 15:05:48 73° E 15:11:52 10° N
Cosmos 2221 2.7 15:11:32 10° SSE 15:15:39 49° E 15:19:49 10° NNE
ERS-2 2.0 15:12:02 10° NNE 15:15:39 64° ESE 15:19:13 10° S
H-2A R/B 3.8 15:21:08 10° SSW 15:25:26 31° W 15:29:47 10° NW
FALCON 9 R/B 4.2 15:19:17 10° W 15:25:34 53° SSW 15:46:04 13° SE
Cosmos 1763 Rocket 4.1 15:22:40 10° NNW 15:27:39 56° WSW 15:32:38 10° S
Cosmos 482 Debris 3.2 15:26:40 10° NNW 15:28:38 37° NE 15:29:26 22° E
Cosmos 1766 Rocket 3.8 15:26:40 10° N 15:31:04 75° W 15:35:28 10° S
GPS 2-04 Rocket1 3.7 15:28:06 10° SSW 15:31:40 29° SSE 15:34:20 15° E
Cosmos 1862 3.8 15:28:42 10° N 15:32:29 39° E 15:35:47 13° SSE
USA 267 3.6 15:26:54 10° SSE 15:33:22 63° SW 15:39:52 10° NW
USA 186 1.5 15:31:47 14° SSE 15:34:00 48° ENE 15:36:29 10° N
YAOGAN 1 4.4 15:30:40 10° SSW 15:34:29 31° W 15:38:20 10° NW
Cosmos 841 Rocket 3.4 15:29:52 10° N 15:35:00 71° ENE 15:40:06 10° SSE
Cosmos 1603 3.7 15:29:54 10° NNW 15:35:32 70° ENE 15:40:57 11° SSE
MOS 1-B Rocket 4.2 15:29:10 10° NNE 15:36:18 63° E 15:42:22 10° S
Resurs 01 Rocket 3.6 15:37:01 12° E 15:38:18 13° ENE 15:40:25 10° NE
CZ-3C R/B 3.0 15:36:12 10° SW 15:38:21 19° SSE 15:40:12 16° SE
Cosmos 1437 Rocket 3.4 15:37:47 13° SSE 15:40:47 33° E 15:44:16 10° NNE
OBJECT-B 1.0 15:43:04 20° SE 15:45:01 49° ENE 15:48:10 10° N
Meteor 2-15 Rocket 4.4 15:40:13 10° S 15:46:17 89° E 15:52:23 10° N
Cosmos 1174 3.1 15:45:01 10° NNW 15:48:24 87° WSW 15:50:05 24° SSE
FALCON 9 DEB 3.2 15:53:18 10° NW 15:56:42 69° SW 15:58:09 31° SSE
SL-08 ROCKET BODY 4.5 15:56:31 10° N 16:02:15 53° E 16:05:43 23° SSE
Lacrosse 5 rocket 3.3 15:59:53 10° WNW 16:03:32 26° WSW 16:07:07 11° S
SJ-6B 2.7 16:01:41 20° S 16:04:14 81° W 16:08:08 10° NNW
Ariane Rocket 3.1 16:01:55 25° SE 16:04:45 57° ENE 16:09:41 10° N
Intercosmos 25 Rocket 3.9 16:03:44 10° N 16:08:47 44° ENE 16:09:41 37° ESE
Cosmos 1570 Rocket 4.1 16:03:44 10° NNW 16:08:58 77° WSW 16:12:37 20° S
Cosmos 1844 Rocket 2.9 16:03:57 10° SSW 16:09:28 70° WNW 16:15:02 10° NNE
Cosmos 1943 3.8 16:07:58 10° NNW 16:13:28 55° WSW 16:18:03 15° S
Cosmos 921 Rocket 4.0 16:15:15 10° NNW 16:19:15 42° W 16:22:02 18° SSW
Cosmos 1354 Rocket 4.0 16:17:47 25° S 16:20:41 56° ESE 16:25:48 10° NNE
IRS-1A Rocket 4.2 16:17:17 25° SSE 16:20:48 87° ENE 16:26:38 10° NNW
BREEZE-M DEB (TANK) 3.1 16:18:36 10° NNW 16:20:54 37° NE 16:21:00 37° NE
Cosmos 1606 3.8 16:17:24 10° SSW 16:20:58 42° W 16:24:33 10° N
Cosmos 1814 Rocket 4.5 16:17:05 10° NNW 16:22:10 57° WSW 16:25:28 21° S
CZ-2C R/B 3.9 16:18:26 10° NNE 16:22:45 45° E 16:22:49 45° ESE
NOSS 3-3 (A) 3.7 16:17:27 10° SSW 16:22:47 57° ESE 16:28:39 10° NE
NOSS 3-3 (C) 3.7 16:17:32 10° SSW 16:22:54 56° ESE 16:28:45 10° NE
ASTRO E2 2.5 16:20:34 10° W 16:24:33 76° SSW 16:24:54 69° SE
Cosmos 1745 Rocket 4.0 16:21:05 10° N 16:27:09 58° E 16:29:17 39° SE
SPOT 3 Rocket 3.8 16:27:43 42° ESE 16:28:38 47° ENE 16:33:34 10° N
Cosmos 1844 4.3 16:23:34 10° SSW 16:29:13 59° WNW 16:34:51 10° N
SL-08 R/B 4.5 16:24:20 10° N 16:30:40 86° W 16:34:31 26° S
Chunghua 1 4.4 16:28:01 10° WSW 16:31:28 77° WSW 16:31:28 77° WSW
Cosmos 1805 Rocket 3.4 16:28:40 10° N 16:33:00 68° E 16:33:15 66° ESE
SL-4 R/B 3.4 16:29:47 10° NNW 16:33:48 31° NE 16:34:28 29° NE
Landsat 7 4.1 16:34:51 46° ENE 16:34:58 46° ENE 16:39:30 10° N
Cosmos 2315 Rocket 4.2 16:35:05 43° SE 16:36:36 51° E 16:42:44 10° NNE
Resurs 1-3 3.8 16:36:02 42° SSW 16:37:20 65° WSW 16:41:41 10° NNW
S3M 4.1 16:31:15 10° S 16:37:37 76° W 16:43:59 10° N
Meteor 1-26 Rocket 4.2 16:37:41 48° SE 16:39:01 61° E 16:44:35 10° NNE
ATLAS 5 CENTAUR R/B 3.8 16:36:42 10° N 16:41:29 24° NE 16:42:37 23° ENE
IGS 5A 3.6 16:51:37 66° N 16:51:37 66° N 16:55:12 10° N
Meteor 2-17 Rocket 4.4 16:50:31 10° N 16:56:36 60° E 16:56:58 59° E
Spot 2 Rocket 4.2 17:13:50 45° NNE 17:13:50 45° NNE 17:17:36 10° N
Resurs 01 Rocket 2.6 17:14:35 42° W 17:14:35 42° W 17:18:35 10° NNW
CZ-4C R/B 4.2 17:13:14 10° N 17:19:32 27° NE 17:20:57 26° ENE
DELTA 2 R/B (1) 4.3 17:14:47 10° NW 17:20:07 45° NNE 17:20:21 45° NNE
SJ 16-02 4.1 17:24:28 10° NNE 17:24:28 10° NNE 17:24:30 10° NNE
Milstar 3 3.5 17:05:53 10° WSW 17:20:29 67° S 17:22:29 56° ESE
ERS-1 Rocket 4.2 17:30:54 33° NNE 17:30:54 33° NNE 17:33:52 10° N
SPOT 5 4.2 17:34:25 34° NNE 17:34:25 34° NNE 17:37:27 10° N
Cosmos 2278 Rocket 3.0 17:42:14 46° N 17:42:14 46° N 17:46:13 10° NNE
Terra 3.7 17:44:37 23° NNE 17:44:37 23° NNE 17:46:35 10° N
ATLAS 5 CENTAUR R/B 3.6 18:20:19 10° NW 18:24:09 38° WNW 18:24:09 38° WNW
Cosmos 1833 Rocket 4.4 18:29:38 10° NNW 18:32:18 29° NNW 18:32:18 29° NNW
CZ-3C R/B 4.2 17:57:43 10° W 18:42:05 41° SW 18:42:05 41° SW
Cosmos 2082 Rocket 4.3 19:02:44 10° NNW 19:04:38 22° NNW 19:04:38 22° NNW
CZ-4C R/B 3.8 19:00:47 10° NW 19:06:07 47° NW 19:06:07 47° NW
ATLAS 2AS CENTAUR R/B 4.3 20:10:13 10° NNW 20:13:07 26° NW 20:13:07 26° NW
USA 281 4.4 20:49:21 36° NE 20:49:21 36° NE 20:54:26 10° N
Resurs 1-4 Rocket 4.3 20:54:16 10° NNE 20:56:01 20° NE 20:56:01 20° NE
Lacrosse 5 4.0 21:31:51 24° NNE 21:31:51 24° NNE 21:33:54 10° NNE
Cosmos 1697 Rocket 4.3 21:50:24 26° E 21:50:24 26° E 21:54:20 10° NE
Cosmos 1459 Rocket 4.5 21:49:49 10° N 21:55:37 54° ENE 21:55:37 54° ENE
Cosmos 1980 Rocket 4.4 21:58:59 15° ESE 22:00:01 15° E 22:03:13 10° ENE
Lacrosse 4 Rocket 4.1 22:02:07 15° E 22:02:07 15° E 22:03:48 10° ENE
Cosmos 2173 Rocket 4.2 21:59:11 10° N 22:04:52 66° NE 22:04:52 66° NE
ADEOS Rocket 4.3 22:05:51 22° SE 22:10:18 47° ENE 22:17:29 10° N
Cosmos 2227 Rocket 4.4 22:10:03 10° NNE 22:14:21 22° ENE 22:18:36 10° ESE
CZ-2D R/B 3.7 22:09:43 10° N 22:12:36 26° NNW 22:12:36 26° NNW
Cosmos 2297 Rocket 3.8 22:13:09 10° N 22:18:10 31° ENE 22:23:08 10° SE
Cosmos 1802 Rocket 4.0 22:14:29 10° N 22:20:37 72° E 22:20:55 71° ESE
SL-16 R/B 3.2 22:24:23 41° NW 22:24:23 41° NW 22:28:40 10° NNW
Cosmos 2100 Rocket 4.1 22:19:15 10° N 22:24:51 67° NW 22:24:51 67° NW
Cosmos 2123 Rocket 3.8 22:26:27 88° N 22:26:27 88° N 22:32:33 10° N
IDEFIX/ARIANE 42P 2.9 22:21:32 10° NNE 22:26:33 60° E 22:26:33 60° E
ADEOS II 2.8 22:30:44 10° N 22:34:38 42° NW 22:34:38 42° NW
GP-B 3.8 22:32:25 10° NNE 22:36:17 50° ENE 22:36:17 50° ENE
Cosmos 1544 Rocket 4.5 22:33:15 10° N 22:37:27 44° E 22:37:31 44° E
Resurs 1-4 Rocket 4.0 22:35:02 10° NNW 22:37:05 17° NW 22:37:05 17° NW
Meteor 2-11 Rocket 4.3 22:32:42 10° N 22:38:52 85° W 22:39:22 76° SSW
Cosmos 2251 Rocket 3.9 22:35:23 10° N 22:40:33 61° ENE 22:42:05 42° SE
Tianhe-1 4.2 22:41:28 14° NNE 22:41:28 14° NNE 22:43:03 10° NE
IRS-1D 4.1 22:39:33 10° N 22:44:02 48° NW 22:44:02 48° NW
MSX 4.0 22:39:45 10° NNE 22:45:30 67° ESE 22:46:52 50° SSE
BREEZE-M R/B 4.3 22:41:54 14° NW 22:46:36 88° SW 22:58:42 10° SE
Cosmos 1536 Rocket 4.0 22:47:26 58° E 22:47:26 58° E 22:51:36 10° NNE
Milstar 3 4.1 22:50:00 24° SSE 22:50:00 24° SSE 22:53:52 10° SE
Cosmos 1455 Rocket 4.1 22:44:00 10° N 22:46:40 37° NNW 22:46:40 37° NNW
Skynet4D Del rocket 4.5 22:47:57 54° SW 22:49:48 68° S 22:58:07 10° E
OAO 2 Rocket 3.7 22:52:49 53° SE 22:52:49 53° SE 22:57:49 10° ENE
Cosmos 2219 3.7 22:48:20 10° N 22:53:58 58° ENE 22:59:36 10° SSE
Cosmos 1864 Rocket 4.4 22:48:50 10° N 22:55:12 80° W 22:57:05 48° S
COSMOS 2455 2.9 22:50:24 10° NNW 22:56:26 78° ENE 23:02:25 10° SSE
ATLAS 2A CENTAUR R/B 3.8 22:56:16 15° SE 22:56:40 15° SE 23:00:30 10° E
COSMOS 2441 4.5 22:52:19 10° NNE 22:57:13 71° ESE 22:58:05 57° SSE
Cosmos 1953 3.7 22:55:12 10° NNW 22:57:20 30° NNW 22:57:20 30° NNW
OAO 3 Rocket 3.1 23:01:21 68° WNW 23:01:56 84° NNE 23:06:52 10° ESE
SL-08 R/B 4.5 22:57:55 10° SE 23:02:23 41° ENE 23:06:48 10° N
SL-08 R/B 4.5 23:02:07 10° NNW 23:08:24 64° W 23:10:35 41° SSW
IRS-1C 4.1 23:05:08 10° N 23:10:25 65° WNW 23:11:26 53° SW
Cosmos 304 Rocket 4.2 23:11:04 43° WNW 23:11:04 43° WNW 23:15:31 10° N
Cosmos 2360 4.3 23:11:14 50° WSW 23:12:23 60° WNW 23:18:03 10° NNE
Cosmos 1300 3.7 23:13:49 10° N 23:17:29 44° E 23:20:14 16° SSE
CZ-4C R/B 4.1 23:19:56 42° WNW 23:19:56 42° WNW 23:23:26 10° NNW
Spot 1 4.3 23:19:27 51° W 23:19:27 51° W 23:23:53 10° NNW
ARIANE 5 R/B 2.5 23:17:06 10° N 23:22:11 63° WNW 23:23:38 44° SW
Cosmos 1140 Rocket 4.4 23:18:24 10° N 23:23:27 49° ENE 23:28:29 10° SE
CZ-2C R/B 3.9 23:19:57 10° NNE 23:23:47 43° E 23:26:16 19° SSE
USA 129 4.4 23:24:07 21° E 23:24:16 22° ENE 23:26:03 10° NNE
Cosmos 1725 Rocket 4.3 23:18:31 10° NNW 23:24:24 45° W 23:26:14 35° SW
TSX-5 4.3 23:22:35 10° NNW 23:26:13 61° ENE 23:30:45 10° SSE
Timation 2 Rocket 3.7 23:22:22 10° NNW 23:28:19 74° WSW 23:34:22 10° SSE
Cosmos 1420 Rocket 4.0 23:26:32 29° S 23:29:17 80° ESE 23:34:29 10° NNE
Cosmos 1626 4.1 23:32:33 17° NW 23:32:33 17° NW 23:34:00 10° NNW
Cosmos 1697 Rocket 3.6 23:32:10 28° W 23:33:28 31° WNW 23:38:24 10° N
ALOS 3.9 23:29:22 10° NE 23:33:33 32° E 23:37:42 10° SSE
Cosmos 614 Rocket 4.0 23:28:53 10° NNW 23:33:49 51° WSW 23:36:49 23° SSW
Cosmos 2285 Rocket 4.1 23:34:36 29° SW 23:37:47 58° WNW 23:44:06 10° N
Lacrosse 4 Rocket 2.4 23:38:25 31° W 23:39:21 34° WNW 23:43:27 10° N
Cosmos 2233 Rocket 4.1 23:34:13 10° NNW 23:40:13 53° W 23:45:01 16° SSW
Cosmos 1980 Rocket 2.4 23:40:46 29° SW 23:43:28 53° WNW 23:49:01 10° N
SAR-Lupe-3 4.5 23:41:14 10° N 23:44:48 67° WNW 23:46:10 34° SSW
CZ-2C R/B 1.7 23:48:33 18° NW 23:50:34 43° N 23:53:42 10° E
Cosmos 1892 Rocket 4.1 23:46:19 10° S 23:50:35 57° E 23:54:50 10° NNE
PSLV R/B 3.9 23:49:39 10° NNE 23:53:48 61° E 23:57:57 10° S
